DAL2194 KLGA-KMYR

Flight info

Callsign DAL2194
Flight time 1h 42m
Altitude 36000
Route WHITE Q409 CRPLR PAACK WYLMS
Aircraft B738/M-SDE2E3FGHIRWXY/LB1

Departure

Time 2026-04-20 15:02
Airport LaGuardia Airport (KLGA)

Arrival

Time 2026-04-20 16:44
Airport Myrtle Beach International Airport (KMYR)
Time Latitude Longitude Altitude Speed Heading
2026-04-20 14:26 40.77171 -73.86338 8 ft 0 kts 133°
2026-04-20 14:55 40.77174 -73.86343 8 ft 2 kts 131°
2026-04-20 14:55 40.77183 -73.86359 8 ft 2 kts 116°
2026-04-20 14:55 40.77188 -73.86377 8 ft 2 kts 105°
2026-04-20 14:56 40.77191 -73.86396 9 ft 2 kts 95°
2026-04-20 14:56 40.77191 -73.86416 9 ft 2 kts 89°
2026-04-20 14:56 40.77191 -73.86423 9 ft 0 kts 91°
2026-04-20 14:58 40.77192 -73.86414 9 ft 2 kts 88°
2026-04-20 14:58 40.77199 -73.86389 8 ft 4 kts 63°
2026-04-20 14:59 40.77225 -73.86354 8 ft 4 kts 42°
2026-04-20 14:59 40.77247 -73.86327 8 ft 3 kts 42°
2026-04-20 14:59 40.77271 -73.86282 8 ft 10 kts 78°
2026-04-20 14:59 40.77232 -73.86160 8 ft 15 kts 122°
2026-04-20 15:00 40.77177 -73.86045 8 ft 14 kts 122°
2026-04-20 15:00 40.77128 -73.85941 8 ft 12 kts 122°
2026-04-20 15:00 40.77123 -73.85850 8 ft 9 kts 60°
2026-04-20 15:00 40.77167 -73.85782 8 ft 12 kts 38°
2026-04-20 15:01 40.77252 -73.85800 8 ft 11 kts 302°
2026-04-20 15:01 40.77293 -73.85886 8 ft 18 kts 302°
2026-04-20 15:01 40.77449 -73.86227 8 ft 75 kts 301°
2026-04-20 15:01 40.77844 -73.87057 9 ft 136 kts 303°
2026-04-20 15:02 40.78451 -73.88269 172 ft 169 kts 303°
2026-04-20 15:02 40.79073 -73.89572 810 ft 169 kts 303°
2026-04-20 15:02 40.79682 -73.90894 1389 ft 171 kts 302°
2026-04-20 15:02 40.80302 -73.92127 2142 ft 156 kts 313°
2026-04-20 15:03 40.81254 -73.92877 2488 ft 166 kts 342°
2026-04-20 15:03 40.82368 -73.93263 2970 ft 167 kts 343°
2026-04-20 15:03 40.83490 -73.93639 3436 ft 169 kts 343°
2026-04-20 15:03 40.84632 -73.94021 3900 ft 170 kts 343°
2026-04-20 15:04 40.85730 -73.94601 4310 ft 171 kts 319°
2026-04-20 15:04 40.86350 -73.95873 4705 ft 170 kts 278°
2026-04-20 15:04 40.86132 -73.97392 5113 ft 175 kts 236°
2026-04-20 15:04 40.85160 -73.98342 5657 ft 180 kts 207°
2026-04-20 15:05 40.84011 -73.98948 6318 ft 178 kts 206°
2026-04-20 15:05 40.82884 -73.99584 6919 ft 179 kts 208°
2026-04-20 15:05 40.81746 -74.00224 7538 ft 178 kts 208°
2026-04-20 15:05 40.80614 -74.00833 8153 ft 178 kts 208°
2026-04-20 15:06 40.79466 -74.01432 8775 ft 180 kts 208°
2026-04-20 15:06 40.78257 -74.02046 9173 ft 192 kts 208°
2026-04-20 15:06 40.76971 -74.02690 9558 ft 205 kts 208°
2026-04-20 15:06 40.75632 -74.03459 9950 ft 217 kts 212°
2026-04-20 15:07 40.74211 -74.04383 10310 ft 234 kts 212°
2026-04-20 15:07 40.72721 -74.05378 10818 ft 246 kts 213°
2026-04-20 15:07 40.71171 -74.06422 11306 ft 257 kts 212°
2026-04-20 15:07 40.69555 -74.07535 11766 ft 270 kts 212°
2026-04-20 15:08 40.67748 -74.08385 12417 ft 284 kts 192°
2026-04-20 15:08 40.65746 -74.08433 13265 ft 288 kts 185°
2026-04-20 15:08 40.63744 -74.08442 13909 ft 291 kts 189°
2026-04-20 15:08 40.61752 -74.08717 14694 ft 288 kts 195°
2026-04-20 15:09 40.59806 -74.09242 15440 ft 285 kts 200°
2026-04-20 15:09 40.57898 -74.10066 15967 ft 290 kts 207°
2026-04-20 15:09 40.56088 -74.11221 16468 ft 294 kts 215°
2026-04-20 15:09 40.54435 -74.12734 17200 ft 289 kts 225°
2026-04-20 15:10 40.53088 -74.14655 17823 ft 287 kts 238°
2026-04-20 15:10 40.51821 -74.16814 17512 ft 314 kts 226°
2026-04-20 15:10 40.49903 -74.18218 17243 ft 325 kts 200°
2026-04-20 15:10 40.47593 -74.18233 17444 ft 346 kts 173°
2026-04-20 15:11 40.45321 -74.17225 18438 ft 342 kts 166°
2026-04-20 15:11 40.43096 -74.16209 19236 ft 336 kts 171°
2026-04-20 15:11 40.40856 -74.15579 19828 ft 331 kts 181°
2026-04-20 15:11 40.38577 -74.15479 20444 ft 324 kts 191°
2026-04-20 15:12 40.36334 -74.15762 21002 ft 322 kts 196°
2026-04-20 15:12 40.34119 -74.16251 21514 ft 322 kts 199°
2026-04-20 15:12 40.31951 -74.16809 22059 ft 323 kts 199°
2026-04-20 15:12 40.29720 -74.17406 22485 ft 328 kts 200°
2026-04-20 15:13 40.27486 -74.18002 23019 ft 328 kts 199°
2026-04-20 15:13 40.25263 -74.18591 23513 ft 329 kts 200°
2026-04-20 15:13 40.22998 -74.19202 23939 ft 331 kts 200°
2026-04-20 15:13 40.20734 -74.19806 24486 ft 328 kts 200°
2026-04-20 15:14 40.18489 -74.20397 24886 ft 330 kts 200°
2026-04-20 15:14 40.16239 -74.20991 25356 ft 330 kts 201°
2026-04-20 15:14 40.13981 -74.21597 25635 ft 335 kts 201°
2026-04-20 15:14 40.11755 -74.22186 26358 ft 326 kts 201°
2026-04-20 15:15 40.09511 -74.22789 26579 ft 331 kts 202°
2026-04-20 15:15 40.07229 -74.23403 26917 ft 333 kts 202°
2026-04-20 15:15 40.04940 -74.24026 27160 ft 339 kts 202°
2026-04-20 15:15 40.02652 -74.24695 27572 ft 336 kts 205°
2026-04-20 15:16 40.00456 -74.25681 27881 ft 327 kts 215°
2026-04-20 15:16 39.98549 -74.27098 28450 ft 315 kts 221°
2026-04-20 15:16 39.96724 -74.28780 28506 ft 322 kts 225°
2026-04-20 15:16 39.94951 -74.30559 28845 ft 322 kts 224°
2026-04-20 15:17 39.93158 -74.32313 29218 ft 323 kts 224°
2026-04-20 15:17 39.91354 -74.34023 29560 ft 323 kts 224°
2026-04-20 15:17 39.89521 -74.35747 29744 ft 328 kts 224°
2026-04-20 15:17 39.87690 -74.37498 30136 ft 325 kts 225°
2026-04-20 15:18 39.85846 -74.39279 30309 ft 329 kts 224°
2026-04-20 15:18 39.84018 -74.41028 30610 ft 328 kts 225°
2026-04-20 15:18 39.82165 -74.42831 30678 ft 333 kts 227°
2026-04-20 15:18 39.80435 -74.44790 30808 ft 333 kts 231°
2026-04-20 15:19 39.78804 -74.46922 30929 ft 334 kts 232°
2026-04-20 15:19 39.77191 -74.49119 31060 ft 337 kts 232°
2026-04-20 15:19 39.75560 -74.51325 31205 ft 340 kts 232°
2026-04-20 15:19 39.73912 -74.53529 31347 ft 344 kts 231°
2026-04-20 15:20 39.72221 -74.55768 31551 ft 344 kts 231°
2026-04-20 15:20 39.68845 -74.60278 31743 ft 353 kts 232°
2026-04-20 15:20 39.67132 -74.62560 31879 ft 356 kts 232°
2026-04-20 15:21 39.65386 -74.64882 32027 ft 358 kts 230°
2026-04-20 15:21 39.63629 -74.67205 32155 ft 362 kts 230°
2026-04-20 15:21 39.61869 -74.69546 32278 ft 365 kts 231°
2026-04-20 15:21 39.60109 -74.71885 32438 ft 367 kts 231°
2026-04-20 15:22 39.58297 -74.74265 32559 ft 371 kts 230°
2026-04-20 15:22 39.56465 -74.76656 32694 ft 374 kts 229°
2026-04-20 15:22 39.54635 -74.79043 32805 ft 377 kts 230°
2026-04-20 15:22 39.52788 -74.81454 32925 ft 380 kts 230°
2026-04-20 15:23 39.50925 -74.83904 33028 ft 384 kts 230°
2026-04-20 15:23 39.49056 -74.86366 33316 ft 384 kts 230°
2026-04-20 15:23 39.47168 -74.88841 33474 ft 387 kts 230°
2026-04-20 15:23 39.45271 -74.91319 33664 ft 390 kts 229°
2026-04-20 15:24 39.43364 -74.93805 33911 ft 391 kts 229°
2026-04-20 15:24 39.41444 -74.96302 34049 ft 394 kts 229°
2026-04-20 15:24 39.39504 -74.98821 34268 ft 395 kts 230°
2026-04-20 15:24 39.37565 -75.01341 34488 ft 396 kts 230°
2026-04-20 15:25 39.35625 -75.03866 34762 ft 395 kts 229°
2026-04-20 15:25 39.33695 -75.06385 34894 ft 398 kts 229°
2026-04-20 15:25 39.31747 -75.08928 35105 ft 399 kts 229°
2026-04-20 15:25 39.29811 -75.11455 35325 ft 399 kts 229°
2026-04-20 15:26 39.27795 -75.13969 35411 ft 404 kts 226°
2026-04-20 15:26 39.25715 -75.16419 35528 ft 407 kts 226°
2026-04-20 15:26 39.23608 -75.18838 35717 ft 408 kts 225°
2026-04-20 15:26 39.21497 -75.21253 35935 ft 408 kts 225°
2026-04-20 15:27 39.19397 -75.23665 36183 ft 407 kts 225°
2026-04-20 15:27 39.15145 -75.28588 36219 ft 411 kts 226°
2026-04-20 15:28 39.10940 -75.33474 36230 ft 409 kts 225°
2026-04-20 15:28 39.06728 -75.38369 36227 ft 408 kts 226°
2026-04-20 15:29 39.02110 -75.42662 36216 ft 416 kts 211°
2026-04-20 15:29 38.96527 -75.44861 36236 ft 429 kts 196°
2026-04-20 15:30 38.90572 -75.45830 36228 ft 430 kts 193°
2026-04-20 15:30 38.84619 -75.46589 36222 ft 430 kts 193°
2026-04-20 15:31 38.78645 -75.47373 36228 ft 431 kts 193°
2026-04-20 15:31 38.72687 -75.48171 36222 ft 429 kts 193°
2026-04-20 15:32 38.66739 -75.48975 36223 ft 430 kts 193°
2026-04-20 15:32 38.60823 -75.49777 36218 ft 430 kts 193°
2026-04-20 15:33 38.54838 -75.50590 36216 ft 430 kts 193°
2026-04-20 15:33 38.48879 -75.51390 36212 ft 429 kts 193°
2026-04-20 15:34 38.42950 -75.52197 36211 ft 432 kts 193°
2026-04-20 15:34 38.36997 -75.53093 36215 ft 426 kts 196°
2026-04-20 15:35 38.31519 -75.55446 36207 ft 410 kts 215°
2026-04-20 15:35 38.26753 -75.59352 36206 ft 408 kts 220°
2026-04-20 15:36 38.22127 -75.63505 36211 ft 405 kts 220°
2026-04-20 15:36 38.17500 -75.67632 36216 ft 410 kts 219°
2026-04-20 15:37 38.12810 -75.71755 36200 ft 408 kts 219°
2026-04-20 15:37 38.08135 -75.75818 36211 ft 408 kts 219°
2026-04-20 15:38 38.03480 -75.79854 36206 ft 409 kts 219°
2026-04-20 15:38 37.98753 -75.83957 36215 ft 410 kts 219°
2026-04-20 15:39 37.94039 -75.88014 36221 ft 410 kts 219°
2026-04-20 15:39 37.89327 -75.92063 36212 ft 409 kts 219°
2026-04-20 15:40 37.84622 -75.96104 36223 ft 407 kts 219°
2026-04-20 15:40 37.79904 -76.00163 36219 ft 409 kts 220°
2026-04-20 15:41 37.75196 -76.04203 36232 ft 408 kts 220°
2026-04-20 15:41 37.70509 -76.08219 36225 ft 408 kts 220°
2026-04-20 15:42 37.65785 -76.12278 36229 ft 409 kts 220°
2026-04-20 15:42 37.61070 -76.16295 36232 ft 408 kts 219°
2026-04-20 15:43 37.56128 -76.19900 36219 ft 410 kts 214°
2026-04-20 15:43 37.51063 -76.23167 36224 ft 413 kts 214°
2026-04-20 15:44 37.45926 -76.26495 36219 ft 413 kts 214°
2026-04-20 15:44 37.40854 -76.29826 36217 ft 410 kts 214°
2026-04-20 15:45 37.35810 -76.33157 36225 ft 412 kts 214°
2026-04-20 15:45 37.30740 -76.36506 36232 ft 410 kts 214°
2026-04-20 15:46 37.25671 -76.39848 36220 ft 411 kts 214°
2026-04-20 15:46 37.20607 -76.43188 36232 ft 412 kts 214°
2026-04-20 15:47 37.15569 -76.46503 36220 ft 408 kts 215°
2026-04-20 15:47 37.10513 -76.49837 36228 ft 410 kts 215°
2026-04-20 15:48 37.05458 -76.53157 36225 ft 410 kts 215°
2026-04-20 15:48 37.00409 -76.56459 36232 ft 411 kts 214°
2026-04-20 15:49 36.95358 -76.59763 36225 ft 408 kts 215°
2026-04-20 15:49 36.90348 -76.63046 36223 ft 408 kts 215°
2026-04-20 15:50 36.85275 -76.66370 36224 ft 410 kts 214°
2026-04-20 15:50 36.80233 -76.69651 36233 ft 409 kts 215°
2026-04-20 15:51 36.75204 -76.72925 36235 ft 408 kts 214°
2026-04-20 15:51 36.70134 -76.76219 36227 ft 409 kts 214°
2026-04-20 15:52 36.65093 -76.79490 36240 ft 409 kts 215°
2026-04-20 15:52 36.60062 -76.82745 36237 ft 408 kts 215°
2026-04-20 15:53 36.52504 -76.87637 36226 ft 408 kts 216°
2026-04-20 15:53 36.47499 -76.90871 36228 ft 407 kts 215°
2026-04-20 15:54 36.42467 -76.94110 36219 ft 405 kts 215°
2026-04-20 15:54 36.37448 -76.97332 36222 ft 406 kts 215°
2026-04-20 15:55 36.32449 -77.00546 36225 ft 407 kts 216°
2026-04-20 15:55 36.27420 -77.03778 36224 ft 405 kts 216°
2026-04-20 15:56 36.22387 -77.07002 36233 ft 406 kts 216°
2026-04-20 15:56 36.17374 -77.10216 36230 ft 407 kts 216°
2026-04-20 15:57 36.12369 -77.13412 36227 ft 403 kts 216°
2026-04-20 15:57 36.07329 -77.16625 36230 ft 405 kts 216°
2026-04-20 15:58 36.02292 -77.19838 36228 ft 406 kts 216°
2026-04-20 15:58 35.97296 -77.23010 36237 ft 403 kts 216°
2026-04-20 15:59 35.92272 -77.26197 36246 ft 407 kts 216°
2026-04-20 15:59 35.87155 -77.29213 36248 ft 406 kts 214°
2026-04-20 16:00 35.82019 -77.32082 36252 ft 409 kts 214°
2026-04-20 16:00 35.76831 -77.34984 36248 ft 406 kts 214°
2026-04-20 16:01 35.71685 -77.37895 36256 ft 406 kts 214°
2026-04-20 16:01 35.66563 -77.40792 36266 ft 405 kts 214°
2026-04-20 16:02 35.61447 -77.43673 36261 ft 405 kts 214°
2026-04-20 16:02 35.56318 -77.46565 36264 ft 404 kts 214°
2026-04-20 16:03 35.51188 -77.49465 36258 ft 406 kts 214°
2026-04-20 16:03 35.46066 -77.52348 36265 ft 405 kts 214°
2026-04-20 16:04 35.40900 -77.55249 36261 ft 405 kts 214°
2026-04-20 16:04 35.35783 -77.58119 36266 ft 404 kts 215°
2026-04-20 16:05 35.30709 -77.60961 36265 ft 403 kts 214°
2026-04-20 16:05 35.25556 -77.63849 36268 ft 404 kts 214°
2026-04-20 16:06 35.20440 -77.66715 36271 ft 405 kts 214°
2026-04-20 16:06 35.15303 -77.69584 36260 ft 404 kts 214°
2026-04-20 16:07 35.10212 -77.72426 36270 ft 403 kts 214°
2026-04-20 16:07 35.05087 -77.75279 36265 ft 402 kts 214°
2026-04-20 16:08 34.99979 -77.78115 36271 ft 403 kts 214°
2026-04-20 16:08 34.94879 -77.80953 36282 ft 403 kts 214°
2026-04-20 16:09 34.89785 -77.83774 36278 ft 402 kts 214°
2026-04-20 16:09 34.84684 -77.86603 36297 ft 403 kts 214°
2026-04-20 16:10 34.79547 -77.89449 36298 ft 404 kts 215°
2026-04-20 16:10 34.74409 -77.92283 36295 ft 402 kts 215°
2026-04-20 16:11 34.69328 -77.95091 36288 ft 404 kts 215°
2026-04-20 16:11 34.64179 -77.97910 36290 ft 402 kts 215°
2026-04-20 16:12 34.59047 -78.00724 36292 ft 403 kts 215°
2026-04-20 16:12 34.53933 -78.03539 36297 ft 405 kts 215°
2026-04-20 16:13 34.48846 -78.06328 36277 ft 401 kts 215°
2026-04-20 16:13 34.43708 -78.09146 36293 ft 404 kts 215°
2026-04-20 16:14 34.38575 -78.11954 36277 ft 403 kts 216°
2026-04-20 16:14 34.33458 -78.14753 36129 ft 402 kts 216°
2026-04-20 16:15 34.30931 -78.16132 36412 ft 405 kts 215°
2026-04-20 16:15 34.28331 -78.17557 36089 ft 407 kts 216°
2026-04-20 16:15 34.25757 -78.18953 36249 ft 402 kts 215°
2026-04-20 16:15 34.23183 -78.20350 36268 ft 404 kts 216°
2026-04-20 16:16 34.18037 -78.23161 36281 ft 407 kts 215°
2026-04-20 16:16 34.12861 -78.25967 36274 ft 404 kts 216°
2026-04-20 16:17 34.07771 -78.28848 36296 ft 399 kts 220°
2026-04-20 16:17 34.05497 -78.30677 36188 ft 389 kts 230°
2026-04-20 16:17 34.03744 -78.33071 35982 ft 370 kts 247°
2026-04-20 16:18 34.02940 -78.35863 35768 ft 351 kts 268°
2026-04-20 16:18 34.03407 -78.38682 35535 ft 351 kts 295°
2026-04-20 16:18 34.05280 -78.40693 35277 ft 385 kts 329°
2026-04-20 16:18 34.08131 -78.40856 34983 ft 448 kts
2026-04-20 16:19 34.10761 -78.38499 34678 ft 509 kts 53°
2026-04-20 16:19 34.11510 -78.34335 34325 ft 529 kts 107°
2026-04-20 16:19 34.09564 -78.30962 33911 ft 465 kts 172°
2026-04-20 16:19 34.06975 -78.31281 33212 ft 350 kts 245°
2026-04-20 16:20 34.07285 -78.33710 32342 ft 365 kts 328°
2026-04-20 16:20 34.09891 -78.32814 31515 ft 484 kts 60°
2026-04-20 16:20 34.09600 -78.29050 30460 ft 459 kts 159°
2026-04-20 16:20 34.07295 -78.29208 29201 ft 325 kts 260°
2026-04-20 16:21 34.08522 -78.31019 28357 ft 393 kts
2026-04-20 16:21 34.10228 -78.28431 27768 ft 458 kts 108°
2026-04-20 16:21 34.08318 -78.26293 27073 ft 354 kts 212°
2026-04-20 16:21 34.07587 -78.28209 26450 ft 311 kts 313°
2026-04-20 16:22 34.09822 -78.27917 25856 ft 420 kts 58°
2026-04-20 16:22 34.09541 -78.24741 25250 ft 399 kts 162°
2026-04-20 16:22 34.07551 -78.25212 24663 ft 295 kts 268°
2026-04-20 16:22 34.08889 -78.26681 24064 ft 364 kts 13°
2026-04-20 16:23 34.10142 -78.24101 23468 ft 414 kts 120°
2026-04-20 16:23 34.08126 -78.22818 22999 ft 319 kts 229°
2026-04-20 16:23 34.08176 -78.24829 22487 ft 320 kts 338°
2026-04-20 16:23 34.10106 -78.23483 21909 ft 403 kts 88°
2026-04-20 16:24 34.08749 -78.21173 21510 ft 343 kts 199°
2026-04-20 16:24 34.07796 -78.22889 21047 ft 296 kts 310°
2026-04-20 16:24 34.09783 -78.22739 20546 ft 384 kts 60°
2026-04-20 16:24 34.09285 -78.19922 20219 ft 365 kts 169°
2026-04-20 16:25 34.07198 -78.20139 21456 ft 270 kts 224°
2026-04-20 16:25 34.06084 -78.21032 24072 ft 172 kts 221°
2026-04-20 16:25 34.04962 -78.21420 24346 ft 194 kts 193°
2026-04-20 16:25 34.03381 -78.21038 23278 ft 277 kts 160°
2026-04-20 16:26 34.01834 -78.19424 23422 ft 302 kts 134°
2026-04-20 16:26 34.00571 -78.17458 23727 ft 299 kts 146°
2026-04-20 16:26 33.98846 -78.16001 23284 ft 307 kts 171°
2026-04-20 16:26 33.96757 -78.15569 22863 ft 308 kts 195°
2026-04-20 16:27 33.94699 -78.16252 22434 ft 312 kts 218°
2026-04-20 16:27 33.93027 -78.17922 22056 ft 316 kts 236°
2026-04-20 16:27 33.91812 -78.20100 21534 ft 314 kts 247°
2026-04-20 16:27 33.91066 -78.22546 20776 ft 315 kts 260°
2026-04-20 16:28 33.90854 -78.25137 20297 ft 310 kts 272°
2026-04-20 16:28 33.91101 -78.27692 19704 ft 310 kts 279°
2026-04-20 16:28 33.91468 -78.30244 19216 ft 308 kts 278°
2026-04-20 16:28 33.91729 -78.32766 18720 ft 305 kts 275°
2026-04-20 16:29 33.91845 -78.35308 18163 ft 306 kts 271°
2026-04-20 16:29 33.91793 -78.37869 17664 ft 304 kts 269°
2026-04-20 16:29 33.91636 -78.40391 17173 ft 302 kts 267°
2026-04-20 16:29 33.91439 -78.42892 16678 ft 301 kts 266°
2026-04-20 16:30 33.91237 -78.45392 16234 ft 298 kts 266°
2026-04-20 16:30 33.91037 -78.47867 15726 ft 297 kts 267°
2026-04-20 16:30 33.90874 -78.50324 15245 ft 294 kts 272°
2026-04-20 16:30 33.91259 -78.52705 14720 ft 293 kts 294°
2026-04-20 16:31 33.92471 -78.54628 14416 ft 291 kts 317°
2026-04-20 16:31 33.94271 -78.55696 14306 ft 290 kts 340°
2026-04-20 16:31 33.96241 -78.56015 14206 ft 284 kts 349°
2026-04-20 16:31 33.98199 -78.56113 13855 ft 282 kts 351°
2026-04-20 16:32 34.00168 -78.56167 13467 ft 281 kts 352°
2026-04-20 16:32 34.02108 -78.56225 13109 ft 279 kts 351°
2026-04-20 16:32 34.04053 -78.56297 12758 ft 277 kts 352°
2026-04-20 16:32 34.05983 -78.56382 12389 ft 274 kts 351°
2026-04-20 16:33 34.07877 -78.56477 12013 ft 273 kts 352°
2026-04-20 16:33 34.09769 -78.56595 11660 ft 270 kts 348°
2026-04-20 16:33 34.11484 -78.57257 11265 ft 258 kts 321°
2026-04-20 16:33 34.12575 -78.58931 10868 ft 255 kts 291°
2026-04-20 16:34 34.12849 -78.61043 10426 ft 260 kts 272°
2026-04-20 16:34 34.12546 -78.63223 10026 ft 265 kts 256°
2026-04-20 16:34 34.11736 -78.65221 9570 ft 274 kts 240°
2026-04-20 16:34 34.10521 -78.67035 9182 ft 277 kts 233°
2026-04-20 16:35 34.09213 -78.68735 8857 ft 275 kts 231°
2026-04-20 16:35 34.07907 -78.70396 8469 ft 270 kts 231°
2026-04-20 16:35 34.06615 -78.72060 7823 ft 275 kts 232°
2026-04-20 16:35 34.05333 -78.73733 7284 ft 275 kts 231°
2026-04-20 16:36 34.04029 -78.75434 6772 ft 274 kts 232°
2026-04-20 16:36 34.02731 -78.77129 6236 ft 274 kts 231°
2026-04-20 16:36 34.01479 -78.78752 6054 ft 260 kts 231°
2026-04-20 16:36 34.00282 -78.80304 5916 ft 247 kts 231°
2026-04-20 16:37 33.99132 -78.81798 5792 ft 233 kts 232°
2026-04-20 16:37 33.98058 -78.83192 5624 ft 224 kts 232°
2026-04-20 16:37 33.96995 -78.84577 5309 ft 223 kts 232°
2026-04-20 16:37 33.95956 -78.85938 4976 ft 223 kts 231°
2026-04-20 16:38 33.94899 -78.87309 4668 ft 220 kts 231°
2026-04-20 16:38 33.93865 -78.88648 4323 ft 218 kts 231°
2026-04-20 16:38 33.92842 -78.89980 3932 ft 219 kts 230°
2026-04-20 16:38 33.91798 -78.91335 3560 ft 218 kts 230°
2026-04-20 16:39 33.90774 -78.92665 3204 ft 217 kts 229°
2026-04-20 16:39 33.89756 -78.93983 2840 ft 216 kts 229°
2026-04-20 16:39 33.88732 -78.95304 2469 ft 216 kts 229°
2026-04-20 16:39 33.87679 -78.96571 2125 ft 214 kts 221°
2026-04-20 16:40 33.86362 -78.97340 1921 ft 209 kts 188°
2026-04-20 16:40 33.84925 -78.97199 1956 ft 211 kts 163°
2026-04-20 16:40 33.83492 -78.96712 1951 ft 215 kts 164°
2026-04-20 16:40 33.82042 -78.96315 1805 ft 208 kts 167°
2026-04-20 16:41 33.80626 -78.95978 1542 ft 202 kts 168°
2026-04-20 16:41 33.79317 -78.95663 1505 ft 178 kts 167°
2026-04-20 16:41 33.78182 -78.95378 1519 ft 155 kts 167°
2026-04-20 16:41 33.77168 -78.95126 1576 ft 149 kts 167°
2026-04-20 16:42 33.76110 -78.94862 1480 ft 162 kts 167°
2026-04-20 16:42 33.74999 -78.94584 1178 ft 159 kts 167°
2026-04-20 16:42 33.73952 -78.94325 952 ft 148 kts 167°
2026-04-20 16:42 33.72953 -78.94076 787 ft 146 kts 167°
2026-04-20 16:43 33.71945 -78.93825 583 ft 146 kts 167°
2026-04-20 16:43 33.70967 -78.93580 393 ft 143 kts 167°
2026-04-20 16:43 33.69998 -78.93338 204 ft 141 kts 167°
2026-04-20 16:43 33.69038 -78.93098 34 ft 138 kts 167°
2026-04-20 16:44 33.68238 -78.92897 26 ft 89 kts 166°
2026-04-20 16:44 33.67786 -78.92775 26 ft 43 kts 166°
2026-04-20 16:44 33.67575 -78.92667 26 ft 22 kts 142°
2026-04-20 16:44 33.67510 -78.92603 26 ft 4 kts 121°
2026-04-20 16:45 33.67509 -78.92593 26 ft 0 kts 96°
2026-04-20 16:45 33.67499 -78.92572 26 ft 5 kts 109°
2026-04-20 16:45 33.67513 -78.92533 25 ft 4 kts 45°
2026-04-20 16:45 33.67542 -78.92526 26 ft 6 kts 355°
2026-04-20 16:46 33.67620 -78.92542 26 ft 14 kts 347°
2026-04-20 16:46 33.67715 -78.92567 26 ft 13 kts 348°
2026-04-20 16:46 33.67802 -78.92589 25 ft 12 kts 348°
2026-04-20 16:46 33.67883 -78.92609 26 ft 11 kts 348°
2026-04-20 16:47 33.67958 -78.92628 26 ft 10 kts 348°